Time,TemperatureF,DewpointF,PressureIn,WindDirection,WindDirectionDegrees,WindSpeedMPH,WindSpeedGustMPH,Humidity,HourlyPrecipIn,Conditions,Clouds,dailyrainin,SoftwareType,DateUTC
2013-06-23 00:14:00,74.4,61.0,30.00,SE,127,0.0,-999.0,64,-99.99,,,0.00,weatherlink.com 1.10,2013-06-23 04:14:00,
2013-06-23 00:29:00,74.9,62.0,30.01,SE,127,0.0,-999.0,64,-99.99,,,0.00,weatherlink.com 1.10,2013-06-23 04:29:00,
2013-06-23 00:44:00,74.7,62.0,30.00,SE,130,0.0,-999.0,64,-99.99,,,0.00,weatherlink.com 1.10,2013-06-23 04:44:00,
2013-06-23 00:59:00,74.7,61.0,30.00,SE,130,0.0,-999.0,62,-99.99,,,0.00,weatherlink.com 1.10,2013-06-23 04:59:00,
2013-06-23 01:14:00,74.6,60.0,30.00,SE,130,0.0,-999.0,60,-99.99,,,0.00,weatherlink.com 1.10,2013-06-23 05:14:00,
2013-06-23 01:29:00,74.4,60.0,30.00,SE,130,0.0,-999.0,61,-99.99,,,0.00,weatherlink.com 1.10,2013-06-23 05:29:00,
2013-06-23 01:44:00,73.5,60.0,29.99,SE,128,0.0,-999.0,63,-99.99,,,0.00,weatherlink.com 1.10,2013-06-23 05:44:00,
2013-06-23 01:59:00,73.5,60.0,29.99,SE,124,0.0,-999.0,62,-99.99,,,0.00,weatherlink.com 1.10,2013-06-23 05:59:00,
2013-06-23 02:14:00,73.7,60.0,29.98,ESE,109,0.0,-999.0,62,-99.99,,,0.00,weatherlink.com 1.10,2013-06-23 06:14:00,
2013-06-23 02:29:00,73.7,60.0,29.98,East,93,0.0,-999.0,63,-99.99,,,0.00,weatherlink.com 1.10,2013-06-23 06:29:00,
2013-06-23 02:44:00,73.3,60.0,29.98,SE,134,0.0,-999.0,63,-99.99,,,0.00,weatherlink.com 1.10,2013-06-23 06:44:00,
2013-06-23 02:59:00,73.2,60.0,29.97,SE,128,0.0,-999.0,63,-99.99,,,0.00,weatherlink.com 1.10,2013-06-23 06:59:00,
2013-06-23 03:14:00,73.0,59.0,29.98,SE,130,0.0,-999.0,62,-99.99,,,0.00,weatherlink.com 1.10,2013-06-23 07:14:00,
2013-06-23 03:29:00,72.8,59.0,29.97,SE,131,0.0,-999.0,62,-99.99,,,0.00,weatherlink.com 1.10,2013-06-23 07:29:00,
2013-06-23 03:44:00,72.5,59.0,29.98,SE,131,0.0,-999.0,63,-99.99,,,0.00,weatherlink.com 1.10,2013-06-23 07:44:00,
2013-06-23 03:59:00,72.0,59.0,29.98,SE,131,0.0,-999.0,64,-99.99,,,0.00,weatherlink.com 1.10,2013-06-23 07:59:00,
2013-06-23 04:14:00,72.1,59.0,29.98,SE,131,0.0,-999.0,64,-99.99,,,0.00,weatherlink.com 1.10,2013-06-23 08:14:00,
2013-06-23 04:29:00,72.3,59.0,29.98,SE,130,0.0,-999.0,63,-99.99,,,0.00,weatherlink.com 1.10,2013-06-23 08:29:00,
2013-06-23 04:44:00,72.3,59.0,29.98,SE,131,0.0,-999.0,63,-99.99,,,0.00,weatherlink.com 1.10,2013-06-23 08:44:00,
2013-06-23 04:59:00,72.3,59.0,29.98,ESE,103,0.0,-999.0,64,-99.99,,,0.00,weatherlink.com 1.10,2013-06-23 08:59:00,
2013-06-23 05:14:00,72.1,59.0,29.98,ESE,104,0.0,-999.0,64,-99.99,,,0.00,weatherlink.com 1.10,2013-06-23 09:14:00,
2013-06-23 05:29:00,72.0,59.0,29.98,ESE,104,0.0,-999.0,64,-99.99,,,0.00,weatherlink.com 1.10,2013-06-23 09:29:00,
2013-06-23 05:44:00,71.6,59.0,29.99,ESE,104,0.0,-999.0,64,-99.99,,,0.00,weatherlink.com 1.10,2013-06-23 09:44:00,
2013-06-23 05:59:00,71.8,59.0,29.99,ESE,104,0.0,-999.0,64,-99.99,,,0.00,weatherlink.com 1.10,2013-06-23 09:59:00,
2013-06-23 06:14:00,71.8,59.0,30.00,ESE,104,0.0,-999.0,64,-99.99,,,0.00,weatherlink.com 1.10,2013-06-23 10:14:00,
2013-06-23 06:29:00,71.5,59.0,30.00,ESE,104,0.0,-999.0,65,-99.99,,,0.00,weatherlink.com 1.10,2013-06-23 10:29:00,
2013-06-23 06:44:00,71.6,60.0,30.01,ESE,104,0.0,-999.0,66,-99.99,,,0.00,weatherlink.com 1.10,2013-06-23 10:44:00,
2013-06-23 06:59:00,71.6,60.0,30.01,ESE,104,0.0,-999.0,66,-99.99,,,0.00,weatherlink.com 1.10,2013-06-23 10:59:00,
2013-06-23 07:14:00,71.6,60.0,30.01,ESE,104,0.0,-999.0,68,-99.99,,,0.00,weatherlink.com 1.10,2013-06-23 11:14:00,
2013-06-23 07:29:00,72.0,61.0,30.03,ESE,104,0.0,-999.0,68,-99.99,,,0.00,weatherlink.com 1.10,2013-06-23 11:29:00,
2013-06-23 07:44:00,72.3,62.0,30.03,ESE,104,0.0,-999.0,71,-99.99,,,0.00,weatherlink.com 1.10,2013-06-23 11:44:00,
2013-06-23 07:59:00,73.2,62.0,30.04,ESE,107,0.0,-999.0,68,-99.99,,,0.00,weatherlink.com 1.10,2013-06-23 11:59:00,
2013-06-23 08:14:00,74.7,61.0,30.03,ESE,121,0.0,-999.0,63,-99.99,,,0.00,weatherlink.com 1.10,2013-06-23 12:14:00,
2013-06-23 08:29:00,76.7,62.0,30.03,SE,130,0.0,-999.0,61,-99.99,,,0.00,weatherlink.com 1.10,2013-06-23 12:29:00,
2013-06-23 08:44:00,77.6,63.0,30.04,SE,137,0.0,-999.0,60,-99.99,,,0.00,weatherlink.com 1.10,2013-06-23 12:44:00,
2013-06-23 08:59:00,77.0,62.0,30.04,SSE,155,0.0,-999.0,61,-99.99,,,0.00,weatherlink.com 1.10,2013-06-23 12:59:00,
2013-06-23 09:14:00,77.9,61.0,30.04,SSE,162,3.0,-999.0,57,-99.99,,,0.00,weatherlink.com 1.10,2013-06-23 13:14:00,
2013-06-23 09:29:00,77.4,62.0,30.04,South,184,2.0,-999.0,59,-99.99,,,0.00,weatherlink.com 1.10,2013-06-23 13:29:00,
2013-06-23 09:44:00,78.3,62.0,30.04,South,189,0.0,-999.0,57,-99.99,,,0.00,weatherlink.com 1.10,2013-06-23 13:44:00,
2013-06-23 09:59:00,79.0,61.0,30.04,WSW,257,0.0,-999.0,55,-99.99,,,0.00,weatherlink.com 1.10,2013-06-23 13:59:00,
2013-06-23 10:14:00,79.2,62.0,30.03,WSW,251,0.0,-999.0,56,-99.99,,,0.00,weatherlink.com 1.10,2013-06-23 14:14:00,
2013-06-23 10:29:00,78.6,63.0,30.04,SW,222,6.0,-999.0,60,-99.99,,,0.00,weatherlink.com 1.10,2013-06-23 14:29:00,
2013-06-23 10:45:00,79.6,63.0,30.03,SW,219,0.0,-999.0,58,-99.99,,,0.00,weatherlink.com 1.10,2013-06-23 14:45:00,
2013-06-23 11:00:00,79.6,63.0,30.03,SW,227,0.0,-999.0,57,-99.99,,,0.00,weatherlink.com 1.10,2013-06-23 15:00:00,
2013-06-23 11:15:00,79.0,63.0,30.03,SW,227,0.0,-999.0,59,-99.99,,,0.00,weatherlink.com 1.10,2013-06-23 15:15:00,
2013-06-23 11:30:00,79.6,63.0,30.04,SW,226,0.0,-999.0,58,-99.99,,,0.00,weatherlink.com 1.10,2013-06-23 15:30:00,
2013-06-23 11:45:00,79.9,64.0,30.04,SW,226,0.0,-999.0,58,-99.99,,,0.00,weatherlink.com 1.10,2013-06-23 15:45:00,
2013-06-23 12:00:00,82.0,64.0,30.03,SW,229,5.0,-999.0,55,-99.99,,,0.00,weatherlink.com 1.10,2013-06-23 16:00:00,
2013-06-23 12:15:00,83.0,65.0,30.02,SW,227,0.0,-999.0,55,-99.99,,,0.00,weatherlink.com 1.10,2013-06-23 16:15:00,
2013-06-23 12:45:00,82.8,64.0,30.02,SW,227,0.0,-999.0,53,-99.99,,,0.00,weatherlink.com 1.10,2013-06-23 16:45:00,
2013-06-23 13:00:00,82.4,66.0,30.01,WSW,256,0.0,-999.0,58,-99.99,,,0.00,weatherlink.com 1.10,2013-06-23 17:00:00,
2013-06-23 13:15:00,84.5,65.0,30.01,WSW,240,0.0,-999.0,52,-99.99,,,0.00,weatherlink.com 1.10,2013-06-23 17:15:00,
2013-06-23 13:30:00,85.1,65.0,30.00,SW,234,0.0,-999.0,51,-99.99,,,0.00,weatherlink.com 1.10,2013-06-23 17:30:00,
2013-06-23 13:45:00,85.1,63.0,29.99,WSW,237,0.0,-999.0,47,-99.99,,,0.00,weatherlink.com 1.10,2013-06-23 17:45:00,
2013-06-23 14:00:00,84.7,63.0,29.99,SW,232,0.0,-999.0,49,-99.99,,,0.00,weatherlink.com 1.10,2013-06-23 18:00:00,
2013-06-23 14:15:00,84.5,64.0,29.99,SW,227,0.0,-999.0,50,-99.99,,,0.00,weatherlink.com 1.10,2013-06-23 18:15:00,
2013-06-23 14:30:00,85.1,66.0,29.98,SW,227,0.0,-999.0,53,-99.99,,,0.00,weatherlink.com 1.10,2013-06-23 18:30:00,
2013-06-23 14:45:00,86.5,63.0,29.97,SW,236,0.0,-999.0,46,-99.99,,,0.00,weatherlink.com 1.10,2013-06-23 18:45:00,
2013-06-23 15:00:00,87.4,60.0,29.97,WSW,239,0.0,-999.0,40,-99.99,,,0.00,weatherlink.com 1.10,2013-06-23 19:00:00,
2013-06-23 15:15:00,87.2,63.0,29.96,WSW,254,0.0,-999.0,45,-99.99,,,0.00,weatherlink.com 1.10,2013-06-23 19:15:00,
2013-06-23 15:30:00,86.5,63.0,29.96,West,270,0.0,-999.0,45,-99.99,,,0.00,weatherlink.com 1.10,2013-06-23 19:30:00,
2013-06-23 15:45:00,88.0,57.0,29.95,SW,230,0.0,-999.0,35,-99.99,,,0.00,weatherlink.com 1.10,2013-06-23 19:45:00,
2013-06-23 16:00:00,88.8,60.0,29.95,SW,236,0.0,-999.0,38,-99.99,,,0.00,weatherlink.com 1.10,2013-06-23 20:00:00,
2013-06-23 16:15:00,88.4,62.0,29.95,WNW,292,0.0,-999.0,42,-99.99,,,0.00,weatherlink.com 1.10,2013-06-23 20:15:00,
2013-06-23 16:30:00,87.4,62.0,29.95,WNW,292,0.0,-999.0,43,-99.99,,,0.00,weatherlink.com 1.10,2013-06-23 20:30:00,
2013-06-23 16:45:00,89.0,63.0,29.94,WNW,292,0.0,-999.0,42,-99.99,,,0.00,weatherlink.com 1.10,2013-06-23 20:45:00,
2013-06-23 17:00:00,89.3,61.0,29.94,WNW,292,0.0,-999.0,39,-99.99,,,0.00,weatherlink.com 1.10,2013-06-23 21:00:00,
2013-06-23 17:15:00,87.2,62.0,29.94,WNW,284,0.0,-999.0,43,-99.99,,,0.00,weatherlink.com 1.10,2013-06-23 21:15:00,
2013-06-23 17:30:00,87.0,62.0,29.93,WNW,284,0.0,-999.0,43,-99.99,,,0.00,weatherlink.com 1.10,2013-06-23 21:30:00,
2013-06-23 17:45:00,88.2,62.0,29.93,WNW,284,0.0,-999.0,42,-99.99,,,0.00,weatherlink.com 1.10,2013-06-23 21:45:00,
2013-06-23 18:00:00,88.8,62.0,29.93,WNW,301,3.0,-999.0,40,-99.99,,,0.00,weatherlink.com 1.10,2013-06-23 22:00:00,
2013-06-23 18:15:00,88.8,63.0,29.93,WNW,301,0.0,-999.0,42,-99.99,,,0.00,weatherlink.com 1.10,2013-06-23 22:15:00,
2013-06-23 18:30:00,87.6,60.0,29.93,WNW,301,0.0,-999.0,40,-99.99,,,0.00,weatherlink.com 1.10,2013-06-23 22:30:00,
2013-06-23 18:45:00,87.2,62.0,29.93,WNW,301,0.0,-999.0,43,-99.99,,,0.00,weatherlink.com 1.10,2013-06-23 22:45:00,
2013-06-23 19:00:00,87.0,63.0,29.93,WNW,301,0.0,-999.0,44,-99.99,,,0.00,weatherlink.com 1.10,2013-06-23 23:00:00,
2013-06-23 19:15:00,85.9,62.0,29.93,WNW,301,0.0,-999.0,44,-99.99,,,0.00,weatherlink.com 1.10,2013-06-23 23:15:00,
2013-06-23 19:30:00,85.5,65.0,29.93,WNW,301,0.0,-999.0,50,-99.99,,,0.00,weatherlink.com 1.10,2013-06-23 23:30:00,
2013-06-23 19:45:00,83.2,65.0,29.93,WNW,301,0.0,-999.0,55,-99.99,,,0.00,weatherlink.com 1.10,2013-06-23 23:45:00,
2013-06-23 20:00:00,81.2,64.0,29.94,WNW,301,0.0,-999.0,57,-99.99,,,0.00,weatherlink.com 1.10,2013-06-24 00:00:00,
2013-06-23 20:15:00,80.7,64.0,29.94,WNW,301,0.0,-999.0,58,-99.99,,,0.00,weatherlink.com 1.10,2013-06-24 00:15:00,
2013-06-23 20:30:00,79.8,64.0,29.94,WNW,301,0.0,-999.0,59,-99.99,,,0.00,weatherlink.com 1.10,2013-06-24 00:30:00,
2013-06-23 20:45:00,79.0,63.0,29.94,WNW,301,0.0,-999.0,58,-99.99,,,0.00,weatherlink.com 1.10,2013-06-24 00:45:00,
2013-06-23 21:00:00,78.5,62.0,29.94,WNW,301,0.0,-999.0,58,-99.99,,,0.00,weatherlink.com 1.10,2013-06-24 01:00:00,
2013-06-23 21:15:00,78.1,62.0,29.95,WNW,301,0.0,-999.0,59,-99.99,,,0.00,weatherlink.com 1.10,2013-06-24 01:15:00,
2013-06-23 21:30:00,77.9,62.0,29.96,WNW,301,0.0,-999.0,59,-99.99,,,0.00,weatherlink.com 1.10,2013-06-24 01:30:00,
2013-06-23 21:45:00,77.9,62.0,29.96,WNW,301,0.0,-999.0,59,-99.99,,,0.00,weatherlink.com 1.10,2013-06-24 01:45:00,
2013-06-23 22:00:00,77.7,63.0,29.97,WNW,301,0.0,-999.0,60,-99.99,,,0.00,weatherlink.com 1.10,2013-06-24 02:00:00,
2013-06-23 22:15:00,77.7,63.0,29.98,WNW,301,0.0,-999.0,60,-99.99,,,0.00,weatherlink.com 1.10,2013-06-24 02:15:00,
2013-06-23 22:30:00,77.4,63.0,29.98,WNW,301,0.0,-999.0,61,-99.99,,,0.00,weatherlink.com 1.10,2013-06-24 02:30:00,
2013-06-23 22:45:00,77.4,63.0,29.99,WNW,301,0.0,-999.0,62,-99.99,,,0.00,weatherlink.com 1.10,2013-06-24 02:45:00,
2013-06-23 23:00:00,77.4,63.0,29.99,WSW,241,2.0,-999.0,62,-99.99,,,0.00,weatherlink.com 1.10,2013-06-24 03:00:00,
2013-06-23 23:15:00,77.0,64.0,29.99,WSW,241,0.0,-999.0,64,-99.99,,,0.00,weatherlink.com 1.10,2013-06-24 03:15:00,
2013-06-23 23:30:00,76.5,64.0,29.99,WSW,241,0.0,-999.0,65,-99.99,,,0.00,weatherlink.com 1.10,2013-06-24 03:30:00,
2013-06-23 23:45:00,76.1,63.0,29.99,WSW,241,0.0,-999.0,65,-99.99,,,0.00,weatherlink.com 1.10,2013-06-24 03:45:00,